Wind_Speed
59 60 59 59 59 59 59 59 58 58 58 57 57 56 56 56 57 57 57 56 56 54 53 52 51 51 50 50 49 48 47 46 46 45 45 45 45 45 45 45 44 44 43 43 42 42 41 41 41 41 41 41 41 40 39 39 39 39 39 38 38 36 36 35 36 37 37 37 36 35 33 31 29 28 28 28 28 28 28 27 25 24 24 24 24 23
61 61 60 60 60 60 60 60 60 59 60 60 60 59 59 59 59 59 58 58 58 57 56 55 54 53 52 52 51 50 49 48 47 47 46 46 46 46 46 46 46 46 45 45 44 44 43 42 42 42 42 42 41 41 40 39 39 39 39 39 38 37 36 36 37 38 38 37 38 37 36 34 32 31 30 30 30 30 29 27 26 24 24 24 24 24
62 62 62 61 61 61 61 61 61 60 60 61 61 61 61 61 61 61 60 60 59 59 58 57 56 55 54 53 52 52 51 50 49 48 48 47 47 47 48 48 47 47 47 46 46 45 45 44 43 43 42 42 42 42 42 41 41 40 40 40 40 39 38 38 38 39 39 38 39 39 39 37 35 34 34 34 33 32 31 29 26 25 24 25 26 26
62 62 62 62 62 62 62 62 61 61 61 61 61 62 62 62 62 62 62 62 61 61 60 59 57 56 55 54 53 52 52 51 51 50 49 49 48 49 49 49 49 49 48 48 47 47 46 45 45 44 44 43 43 43 43 43 42 42 41 41 41 40 40 40 40 41 40 40 39 40 39 38 38 37 38 38 37 36 34 31 28 26 25 26 27 27
63 63 63 63 63 63 63 63 62 62 62 62 62 62 62 62 62 63 63 63 63 62 62 61 60 58 56 55 54 53 52 52 51 51 50 50 49 49 50 50 50 50 50 49 48 48 47 47 46 46 45 44 44 44 44 44 44 43 43 42 41 41 41 41 42 43 42 40 39 39 38 37 38 39 40 40 40 38 36 33 29 27 26 28 28 29
65 64 64 64 65 65 65 64 64 63 63 63 63 62 62 62 62 62 62 63 63 63 63 62 61 60 58 56 54 53 52 52 51 51 51 50 50 50 50 51 51 51 51 50 50 49 48 48 47 47 46 46 45 45 45 45 45 44 44 43 42 42 42 42 44 45 44 42 39 37 36 36 38 39 40 40 39 38 36 34 31 28 28 29 30 30
66 66 66 66 66 66 66 66 66 65 64 64 64 64 63 63 63 62 62 62 62 62 62 62 62 62 60 58 56 54 52 51 51 51 51 50 50 50 50 51 52 52 52 52 51 50 49 49 48 48 47 47 47 46 46 46 46 45 45 44 44 43 43 44 46 47 46 43 40 38 37 37 39 40 39 36 35 34 33 33 31 30 30 31 31 31
65 66 66 66 66 67 67 67 67 66 66 66 66 66 65 65 64 64 63 63 62 62 62 62 62 62 61 60 58 56 54 52 51 51 50 50 49 49 50 50 51 52 53 53 52 51 50 50 49 49 48 48 48 48 47 47 47 47 46 46 45 45 44 45 47 47 46 44 42 40 39 40 41 39 35 31 30 30 32 32 33 32 32 32 32 32
63 64 65 65 66 66 67 68 67 67 66 66 66 66 66 66 66 66 65 64 63 63 62 62 63 63 62 61 60 58 56 54 53 51 50 50 49 49 49 50 51 52 53 53 53 52 51 50 50 50 49 49 49 48 48 48 48 48 47 47 47 46 46 46 47 47 46 44 43 42 42 42 40 36 31 29 30 32 33 34 35 35 34 34 33 32
61 62 63 63 64 65 65 66 67 67 66 66 66 66 66 66 66 66 66 66 65 64 63 63 63 63 63 63 62 60 58 56 54 53 51 50 49 48 48 49 50 51 53 53 53 53 52 51 51 50 50 50 49 49 49 49 49 49 49 48 48 47 47 47 47 46 46 45 44 43 43 41 38 33 30 31 34 36 36 37 38 38 36 35 34 33
61 61 62 63 64 64 64 65 66 66 66 65 66 66 66 65 65 65 66 66 66 65 64 64 63 63 63 63 63 62 60 59 57 55 53 51 50 49 48 49 49 50 52 53 53 53 52 52 51 51 51 50 50 50 50 50 50 49 49 49 49 48 48 48 47 47 46 45 44 44 42 40 37 34 33 35 37 38 38 39 40 40 38 36 35 34
61 62 62 63 64 64 65 65 65 65 65 65 65 65 65 65 64 63 63 65 65 65 64 64 64 63 63 63 63 62 62 61 59 57 55 53 52 50 49 48 49 49 51 52 53 53 53 52 51 51 51 50 50 50 50 50 50 50 49 49 49 49 49 48 47 47 46 45 45 44 42 40 37 35 35 37 38 38 40 42 42 41 38 37 36 35
60 61 62 63 64 65 65 65 66 66 65 64 63 63 63 63 62 61 61 62 63 63 63 63 63 63 63 62 62 61 61 61 61 59 57 56 54 52 50 49 48 48 49 50 52 53 53 52 52 51 51 51 50 50 50 50 50 49 49 49 49 49 49 48 47 47 46 45 45 44 43 41 39 37 37 38 38 40 42 44 43 41 39 37 36 36
61 61 61 62 63 64 64 65 65 66 65 65 63 62 62 61 60 59 59 60 61 61 60 60 61 62 62 61 61 61 60 61 61 60 59 58 56 54 52 51 49 48 48 49 50 51 52 52 52 52 51 51 51 51 50 50 50 49 49 49 49 48 48 48 47 46 46 45 44 44 43 42 41 39 38 38 40 42 44 44 43 41 39 38 37 36
62 62 62 62 63 63 63 63 64 65 65 65 64 63 61 60 59 58 57 58 58 58 57 57 58 60 60 59 59 58 57 57 59 60 61 60 58 57 55 54 52 50 48 48 49 50 51 51 52 52 51 51 51 51 50 50 50 49 49 48 48 48 48 47 47 46 45 45 44 44 43 43 42 40 39 39 41 44 45 44 42 40 39 38 37 36
62 62 63 63 63 63 63 62 62 63 64 64 63 62 61 59 58 57 55 55 55 55 53 53 55 56 57 58 56 53 52 53 55 58 60 60 60 59 58 57 55 53 51 49 49 49 49 50 51 51 51 51 51 51 51 50 50 50 49 49 48 48 47 47 46 46 45 45 44 44 43 43 42 41 40 40 42 44 45 43 41 39 38 37 36 35
62 62 62 63 63 63 63 62 62 62 62 61 61 60 59 58 57 55 53 53 53 52 51 51 52 53 55 56 54 51 49 48 50 52 54 56 58 59 59 58 58 57 54 52 50 49 49 49 50 50 51 51 51 51 51 51 50 50 50 49 49 48 47 47 46 45 45 45 44 43 43 42 41 41 41 42 43 44 44 42 40 39 38 37 36 35
60 60 61 62 63 63 63 63 62 61 60 59 58 57 57 56 54 53 52 52 51 51 51 51 51 52 53 53 53 51 46 42 40 40 42 45 50 53 55 56 57 58 57 55 53 51 50 49 49 49 50 50 50 51 51 51 51 50 50 50 49 49 48 47 46 46 45 45 44 43 43 42 42 42 42 43 44 44 43 41 39 38 38 37 36 35
58 59 59 59 60 61 62 62 62 61 59 58 56 54 52 52 50 49 49 50 50 50 50 51 51 52 52 53 53 51 45 40 38 37 35 36 38 41 44 47 51 55 57 57 56 54 51 50 49 49 49 49 50 50 50 51 51 51 51 50 50 49 49 48 47 46 45 45 44 43 42 42 42 43 44 44 45 44 42 41 39 38 37 37 36 35
56 57 57 57 58 58 59 60 59 58 57 55 53 51 49 49 48 46 46 46 47 47 49 50 51 51 52 52 53 51 47 43 40 38 37 35 33 34 35 38 39 42 49 54 56 55 53 51 49 48 48 48 49 49 50 50 51 51 51 51 50 50 49 49 48 47 46 45 44 43 43 42 43 43 44 45 45 43 42 40 39 38 38 37 36 35
54 55 55 55 55 56 57 58 57 55 53 52 51 49 48 48 47 46 45 44 43 43 45 47 49 51 51 51 50 49 47 44 43 43 41 39 37 36 35 36 37 38 42 48 52 54 54 52 50 48 47 47 47 48 49 50 50 51 51 51 51 51 50 49 48 48 46 46 45 44 43 43 43 43 44 44 44 43 41 40 39 38 38 37 36 35
51 52 52 52 52 53 54 55 53 51 50 49 48 48 47 45 44 45 46 44 43 43 43 45 47 49 49 48 48 47 45 43 44 46 46 44 42 40 38 37 39 43 47 49 50 52 54 54 52 49 47 46 46 47 48 49 50 50 51 51 51 51 50 50 49 48 47 46 45 44 43 43 43 43 44 43 43 42 41 40 39 38 38 37 36 35
47 48 49 49 49 49 50 50 49 48 46 45 45 45 43 41 40 41 43 43 43 44 45 46 47 47 47 47 46 45 43 42 43 45 47 47 48 46 42 38 40 44 49 50 50 51 54 56 56 52 48 46 45 46 47 48 49 49 50 50 51 51 50 50 50 49 48 46 45 43 43 43 43 43 43 43 42 41 40 40 39 38 38 37 36 36
43 44 44 45 45 45 45 44 44 43 42 41 40 40 39 38 37 38 39 39 40 42 43 45 46 46 47 46 45 43 42 41 41 43 46 49 51 51 47 44 44 47 50 50 49 49 52 55 57 55 51 48 46 46 46 47 47 48 49 50 50 51 51 50 50 50 49 47 45 43 42 42 43 44 44 44 43 41 40 39 39 38 38 37 37 36
40 40 39 39 39 39 38 38 38 38 37 37 37 37 37 37 37 37 38 38 39 40 41 42 44 45 46 45 43 42 41 40 40 41 44 48 51 51 50 49 49 50 51 50 47 46 49 53 55 54 52 50 48 46 46 46 46 47 48 49 50 50 51 50 50 50 50 49 47 45 43 42 42 43 44 44 43 42 40 39 38 38 38 38 37 37
38 37 36 35 34 33 33 33 34 33 32 33 34 35 36 37 38 38 38 39 39 39 40 41 42 44 44 43 42 41 40 39 38 39 42 45 48 49 49 49 50 51 52 51 48 47 48 51 51 50 48 47 46 45 44 45 45 46 47 48 49 50 50 50 50 50 50 50 49 47 45 43 43 43 44 45 44 43 41 39 38 38 38 38 37 37
36 35 34 34 33 32 32 33 32 32 31 31 31 32 33 34 35 36 37 37 37 36 37 38 40 41 41 41 41 40 39 37 36 37 38 41 44 46 46 46 47 48 50 50 49 49 49 49 48 44 41 39 38 39 40 42 44 45 46 47 48 49 50 50 50 50 50 50 50 49 48 46 45 44 44 45 45 43 41 39 38 38 38 38 38 38
34 33 32 32 32 32 33 33 33 33 33 33 32 31 31 31 32 33 34 34 33 33 34 35 36 36 36 37 37 37 36 34 34 34 35 37 40 43 43 43 43 45 46 48 48 48 48 47 45 40 36 33 32 32 35 39 41 43 44 45 46 47 48 49 50 50 50 50 50 50 49 48 47 46 45 45 45 44 42 40 39 38 38 39 39 39
32 31 30 29 29 30 30 32 33 34 34 34 33 32 31 31 31 31 31 29 28 30 31 32 31 30 30 31 32 32 32 32 32 32 32 34 37 40 41 40 40 41 43 45 46 46 46 45 43 39 36 35 33 32 33 36 38 40 41 42 44 45 47 48 49 49 49 49 50 50 50 49 49 48 47 46 46 45 43 41 40 39 39 39 39 39
31 30 29 28 27 27 27 28 29 30 31 32 32 33 33 32 32 32 30 28 27 28 29 29 28 27 27 28 29 30 31 30 29 28 28 30 34 37 38 37 38 39 41 42 43 43 44 44 42 40 38 37 36 34 33 34 36 37 39 40 41 43 44 46 47 48 48 49 49 49 49 49 49 48 47 47 46 45 43 42 41 40 40 40 40 40
32 31 29 28 27 26 25 24 24 25 25 27 28 30 32 33 34 34 34 32 32 32 32 31 30 30 31 32 32 31 29 25 22 21 22 25 29 32 32 32 34 37 38 39 39 41 42 42 42 41 40 40 38 36 33 32 33 34 36 37 38 39 41 43 44 46 47 47 48 48 48 48 48 48 47 47 46 45 44 42 42 41 41 41 41 40
33 31 30 30 29 27 25 22 21 20 20 21 23 24 26 29 31 32 33 34 35 35 36 36 36 37 37 36 34 31 27 23 20 19 19 20 22 22 22 24 28 32 33 34 35 36 38 40 41 42 42 42 41 38 34 32 31 32 33 34 35 36 38 39 41 43 44 45 46 46 46 47 47 47 46 46 46 45 44 43 42 42 41 41 41 40
32 31 30 30 29 28 25 22 20 19 19 19 20 20 21 23 24 25 27 28 30 31 33 34 36 37 37 36 34 30 26 25 23 22 21 21 20 17 14 16 21 25 28 30 32 34 35 37 39 41 42 44 44 42 38 35 34 34 34 34 34 34 35 36 38 40 42 43 44 44 45 45 46 46 45 45 45 45 44 43 42 42 42 41 41 40
30 30 29 28 27 26 25 23 22 22 22 22 21 21 21 21 21 22 22 23 25 26 28 30 31 33 33 33 32 30 29 28 27 26 25 26 25 22 17 15 17 21 24 27 30 32 34 36 37 39 41 44 45 44 42 40 39 38 37 36 36 35 35 35 36 38 39 41 42 43 44 44 44 44 45 45 45 45 44 43 42 42 41 41 41 40
29 28 26 25 23 22 22 23 24 25 26 26 26 26 25 25 25 24 23 24 25 26 28 28 29 29 29 30 30 30 31 31 30 29 29 30 31 30 25 20 18 19 21 24 27 29 30 32 34 36 38 40 42 43 42 42 42 41 40 39 39 38 37 37 37 38 39 40 41 42 43 43 43 44 44 44 44 44 44 43 42 41 41 41 40 40
29 27 25 23 22 20 21 22 24 26 27 28 29 29 29 29 28 28 27 27 27 27 27 27 27 26 26 27 27 29 30 31 31 32 33 34 36 36 33 27 22 19 20 22 24 25 25 27 28 29 31 33 35 36 37 38 38 38 39 39 39 39 38 38 38 38 39 39 40 41 42 42 43 43 43 43 43 43 43 42 41 41 41 40 40 40
28 27 26 25 24 24 24 24 26 27 29 29 30 30 30 29 29 29 29 29 29 27 23 20 18 18 19 21 23 25 27 29 31 33 35 37 39 40 40 36 30 24 22 22 23 23 24 24 25 25 25 26 27 27 27 28 29 30 33 35 36 37 37 37 38 38 38 39 40 40 41 41 42 42 42 42 42 42 41 41 40 40 40 40 40 39
28 27 27 27 28 28 28 29 29 30 30 30 29 29 28 28 27 27 28 29 30 29 25 20 17 15 15 16 18 21 24 26 28 31 33 36 39 42 43 42 38 33 29 27 26 25 25 26 26 26 26 25 24 22 20 19 20 22 26 29 32 33 35 36 36 37 37 38 39 39 40 40 41 41 41 41 41 41 40 40 40 40 40 40 40 40
27 27 27 27 28 29 29 30 31 31 30 29 27 26 25 24 24 24 25 27 29 30 29 27 25 23 22 21 21 22 23 24 25 27 30 33 37 40 42 43 42 40 37 34 32 30 30 30 30 30 29 27 24 21 19 17 16 18 21 25 28 31 33 34 34 35 36 37 38 38 39 39 39 39 39 39 39 40 40 40 40 41 41 40 40 40
26 26 27 27 28 28 28 28 29 28 27 26 24 23 21 20 20 20 21 23 26 28 29 30 30 30 30 29 29 28 27 26 25 26 27 29 32 36 38 40 41 41 40 38 36 35 34 34 34 34 33 31 28 24 21 18 16 15 16 19 24 29 32 32 32 32 34 35 36 37 37 38 38 37 37 37 38 39 39 40 41 41 41 41 41 41
24 25 27 28 28 28 27 27 27 26 25 24 22 20 17 16 16 17 18 20 22 24 26 28 29 30 31 32 31 31 29 28 27 26 26 27 28 31 33 35 37 38 38 38 37 37 36 36 35 35 35 35 33 29 25 22 19 16 14 15 19 25 30 30 30 31 32 33 34 35 35 36 36 36 36 37 37 38 39 39 40 41 41 42 42 42
26 26 27 29 29 29 28 28 27 26 25 24 22 20 17 17 17 17 18 18 19 21 23 25 26 27 28 29 29 29 29 28 28 27 27 27 27 28 29 31 32 34 34 35 35 35 34 34 34 35 35 36 36 35 31 27 23 19 16 14 15 18 24 28 30 31 30 31 31 32 33 34 34 35 36 36 37 38 38 39 39 40 41 41 41 41
30 30 30 31 32 32 31 30 29 28 27 25 23 21 20 20 20 20 20 19 18 19 20 22 24 25 26 26 26 26 26 26 27 27 27 28 28 28 29 29 30 30 31 31 31 31 32 32 32 33 35 37 38 39 37 33 29 25 21 17 13 13 17 25 30 31 30 29 30 30 31 32 33 34 35 35 36 37 38 39 39 39 40 40 40 39
32 33 33 34 34 34 34 33 32 30 29 27 25 23 22 22 23 23 23 21 19 18 19 20 22 23 25 25 25 25 24 24 24 25 25 26 27 27 27 27 28 28 28 29 29 29 30 30 31 32 34 36 38 40 40 38 35 31 27 22 17 15 18 24 29 30 29 29 30 30 31 32 32 33 34 34 35 36 37 38 39 39 39 39 38 38
32 33 33 34 34 34 34 33 32 31 29 28 26 24 23 23 24 25 25 24 22 21 20 21 23 24 25 26 26 26 24 23 22 22 22 22 23 23 24 24 24 25 25 26 26 27 28 29 31 32 33 35 38 41 42 41 39 36 33 27 22 18 20 25 29 30 29 30 31 32 32 33 33 33 33 34 34 35 36 37 38 38 38 39 39 39
29 30 30 31 31 31 31 30 30 29 28 27 26 25 24 24 25 25 26 26 26 25 25 25 26 27 28 27 27 25 24 22 20 19 18 19 19 20 21 21 21 21 21 22 23 24 26 28 29 30 31 34 37 40 42 43 42 40 37 32 25 20 21 26 30 31 31 32 32 32 33 34 35 35 35 34 34 34 35 35 36 37 37 38 39 39
25 25 26 26 25 25 25 27 27 27 26 26 25 25 25 24 25 25 26 27 28 28 28 28 28 28 27 26 24 22 20 19 18 17 16 16 16 17 18 19 19 19 19 19 20 21 23 25 26 28 30 32 35 38 41 43 43 42 40 36 29 23 22 27 31 33 33 33 33 34 34 35 36 37 37 37 36 35 34 34 35 35 36 37 38 39
24 23 23 23 21 21 22 24 25 26 25 25 24 24 24 23 23 24 25 26 27 28 28 28 27 25 23 20 18 17 17 17 16 14 12 12 12 14 15 16 17 17 17 18 18 19 20 22 23 25 27 29 32 35 38 41 42 42 42 40 36 29 25 27 31 33 34 35 35 34 34 34 36 38 39 38 38 37 36 36 35 35 35 36 37 38
23 23 23 23 22 22 22 23 24 25 25 24 24 23 22 21 21 22 22 23 24 25 24 23 21 18 15 13 13 14 15 16 14 11 9 8 9 10 12 13 14 15 16 16 17 18 19 20 21 22 24 26 28 31 34 37 39 40 41 41 39 35 31 29 31 34 36 37 37 35 34 34 36 38 39 39 39 39 39 38 37 37 36 35 36 38
23 23 23 23 23 23 24 24 24 25 25 24 23 22 21 20 19 19 19 19 19 18 17 16 14 12 11 12 14 15 17 16 14 10 7 7 9 12 13 13 13 13 14 14 15 16 17 18 19 20 22 23 25 27 30 33 35 37 38 40 40 39 36 34 33 35 37 39 39 37 35 33 34 36 38 40 41 41 41 40 40 39 37 36 35 37
22 22 22 23 23 23 23 23 23 23 23 22 22 21 20 18 17 15 14 13 12 11 11 10 9 10 11 13 15 16 17 17 15 12 10 10 11 13 14 14 13 13 13 13 13 13 14 16 18 19 20 21 22 24 26 28 30 32 34 36 38 39 39 37 37 37 38 40 40 40 38 34 32 32 36 39 42 43 43 42 41 40 38 37 36 35
Wind_Direction
281 281 281 281 281 280 280 279 279 278 277 276 275 274 273 273 273 274 274 274 274 272 271 270 269 268 267 266 265 265 264 263 262 262 262 262 262 262 261 261 261 260 259 258 257 256 255 253 252 251 250 251 251 251 251 249 248 247 247 246 246 246 247 248 247 246 245 242 241 241 243 247 249 249 248 248 247 248 248 249 251 254 256 257 257 254
281 281 281 280 280 280 280 280 279 279 279 278 277 276 275 274 274 273 273 273 273 273 272 271 270 268 267 267 266 265 264 263 262 261 261 260 260 260 259 259 259 258 258 258 257 256 255 254 252 251 250 250 250 250 249 248 247 246 245 245 244 245 246 247 248 249 248 244 241 239 240 243 245 246 247 247 247 247 247 248 250 253 256 257 257 254
281 281 281 280 280 280 279 279 279 279 279 279 278 278 277 277 276 275 274 274 273 273 272 271 270 269 268 267 266 265 264 263 262 261 260 259 259 258 258 257 257 256 256 256 256 255 255 254 253 251 250 250 249 249 249 247 246 245 245 244 244 243 244 245 248 250 250 247 242 239 239 240 242 244 245 246 246 247 247 247 249 252 256 257 257 254
281 281 281 281 280 280 279 279 279 279 279 279 279 279 278 278 278 277 276 276 275 274 273 272 270 269 267 266 265 265 264 263 262 260 259 258 258 257 257 256 256 255 254 254 254 254 253 253 252 251 250 250 249 249 249 248 247 246 244 244 243 243 244 246 248 251 252 249 244 240 239 240 241 243 245 246 247 247 247 246 248 251 255 257 257 254
282 281 281 281 281 280 280 279 279 279 278 278 278 278 278 278 278 278 278 277 277 276 275 274 272 270 268 267 265 264 263 262 261 260 259 258 257 257 256 256 255 254 253 252 252 252 252 252 251 251 250 249 249 249 249 249 249 248 246 244 242 243 244 247 249 251 251 249 245 242 241 242 244 245 246 247 247 248 247 246 246 249 254 256 256 255
282 281 281 281 280 280 280 279 279 278 278 278 277 277 277 277 277 277 277 277 277 277 276 276 275 273 271 269 266 264 263 262 261 260 258 257 257 256 256 255 255 254 253 252 251 250 250 250 250 250 250 249 249 248 248 248 249 249 248 246 243 241 241 244 247 249 250 249 246 243 242 243 245 246 247 248 248 248 248 246 246 248 252 254 255 254
281 281 281 280 280 280 279 279 278 278 278 277 277 276 276 276 276 276 276 276 276 276 276 276 275 274 273 271 269 267 265 263 261 260 258 257 256 255 255 255 255 254 253 252 250 249 249 248 248 248 249 249 248 248 248 248 248 248 248 248 245 242 240 241 244 247 248 248 246 243 242 243 244 245 246 248 250 251 250 248 247 248 251 253 253 253
281 281 280 280 280 279 279 278 278 278 277 277 276 276 275 275 275 274 274 274 275 275 275 275 275 275 274 273 271 269 267 264 262 260 259 257 256 255 254 254 254 254 254 253 251 249 248 247 247 247 247 247 247 247 247 247 247 247 247 247 247 245 243 242 243 245 247 247 246 244 242 242 242 244 245 249 252 254 254 251 249 248 250 251 252 252
281 281 280 280 279 279 279 278 277 277 277 276 276 275 275 274 274 274 274 273 274 274 274 274 274 274 273 273 271 270 267 265 263 261 259 257 256 255 254 253 253 253 253 253 251 250 248 247 246 246 245 245 246 246 247 247 246 246 246 246 247 246 246 245 245 246 247 247 247 245 243 242 242 242 244 249 253 255 255 253 250 249 249 250 251 252
282 282 281 281 280 279 279 278 278 277 276 276 275 275 274 274 274 274 273 273 273 273 273 273 274 274 273 272 272 270 268 265 263 261 259 257 256 254 253 253 252 252 252 252 251 250 249 247 246 245 244 244 244 245 245 246 246 246 246 246 246 246 246 247 247 247 248 248 247 246 245 243 242 241 243 248 252 253 252 251 249 248 248 249 251 251
284 284 283 282 281 280 280 279 278 278 277 276 275 275 274 274 274 274 273 273 272 272 272 272 272 272 272 272 272 271 269 267 264 261 258 256 255 253 252 252 251 251 251 251 251 250 249 248 246 245 244 244 243 244 244 245 245 245 245 245 246 246 246 247 247 248 248 248 247 246 245 243 240 240 243 248 251 251 250 249 248 247 247 248 250 251
284 284 284 283 283 282 281 281 280 279 278 277 276 275 275 274 274 273 273 272 271 271 271 270 270 270 271 271 271 271 270 268 266 263 260 257 255 252 251 250 250 250 250 251 251 250 250 248 247 246 244 244 243 243 243 244 244 244 245 245 245 246 246 247 247 248 248 248 247 246 244 241 238 237 241 246 249 250 248 248 247 246 246 247 249 250
283 283 283 283 283 283 282 282 281 280 280 279 278 277 275 274 274 273 272 272 271 271 270 270 269 269 269 269 270 270 270 269 267 265 262 259 257 254 251 249 248 248 249 249 250 250 250 249 247 246 245 244 243 243 243 243 243 244 244 245 245 245 246 246 247 247 248 248 247 246 244 240 236 235 238 244 247 248 247 247 246 246 246 247 248 249
283 282 282 282 281 282 282 282 282 281 281 280 279 278 276 275 274 273 272 272 271 270 270 269 269 268 268 268 268 268 269 269 268 266 263 261 259 256 254 251 248 247 247 247 248 249 249 249 248 247 245 244 243 243 243 243 243 243 244 244 245 245 245 246 246 247 247 247 246 245 244 241 236 234 236 241 244 246 246 247 246 246 245 246 247 248
284 283 282 281 280 280 281 281 281 281 281 280 280 279 278 277 275 274 273 272 271 270 270 269 268 267 267 266 266 267 268 269 268 267 264 262 259 258 257 255 252 249 247 246 246 247 248 248 248 247 246 244 243 243 242 242 242 242 243 243 244 244 245 245 246 246 246 246 246 245 244 241 238 236 237 240 243 245 246 246 246 245 245 246 247 247
285 285 284 282 281 281 280 280 280 280 280 280 281 281 280 278 277 275 273 271 270 269 269 268 267 266 265 265 264 264 265 267 268 268 267 264 261 259 259 258 257 253 250 248 246 246 246 246 247 247 246 245 244 243 242 242 242 242 242 243 243 243 244 244 245 245 245 245 245 244 243 242 239 238 238 240 243 244 246 246 245 245 245 245 246 246
285 285 285 284 283 282 282 281 280 280 280 280 281 281 281 280 279 277 274 271 269 268 267 266 265 264 264 263 262 262 262 263 266 268 268 267 265 262 261 260 260 257 254 251 248 247 246 245 245 245 245 245 244 243 243 242 242 242 242 242 242 242 243 243 243 244 244 244 244 244 243 242 240 239 239 241 242 244 245 245 245 244 244 244 245 245
285 285 285 285 284 284 283 283 282 280 280 281 282 282 282 282 281 280 276 273 269 267 265 263 262 262 262 262 261 259 258 258 261 265 267 266 264 263 262 262 261 259 257 254 251 249 247 246 245 244 244 244 243 243 243 242 242 241 241 241 241 242 242 242 242 242 242 243 243 243 242 241 240 240 240 241 243 244 245 245 244 244 243 243 243 243
285 285 285 285 284 284 284 284 283 283 283 283 283 284 284 283 281 280 278 276 272 269 265 263 261 261 260 260 259 258 256 254 254 257 260 260 259 258 259 260 261 261 260 257 254 250 248 246 245 244 243 243 242 242 242 241 241 241 241 241 241 241 241 241 241 241 241 241 241 241 241 240 240 240 241 242 243 244 244 244 244 243 243 242 242 241
286 285 285 284 284 283 283 283 283 284 285 285 286 286 284 282 280 278 276 275 274 272 269 265 263 261 260 259 259 259 256 253 251 251 251 251 250 249 249 250 254 258 260 259 256 253 249 247 246 245 244 243 242 241 241 240 240 240 240 240 240 240 240 240 240 240 240 240 240 240 240 240 240 241 242 243 244 244 244 244 243 243 242 241 241 240
287 286 285 284 284 283 283 282 283 285 286 287 287 287 285 283 281 278 275 272 271 270 270 269 266 264 261 260 260 260 258 254 251 249 247 246 246 246 244 243 244 247 252 255 256 255 252 249 247 245 245 244 243 242 241 240 239 239 239 239 239 240 240 240 239 239 239 239 239 239 239 239 240 241 242 243 244 244 244 243 243 242 241 241 240 239
287 286 285 284 284 283 283 283 284 286 287 288 288 287 286 284 283 280 278 274 270 267 266 267 267 266 264 263 262 261 259 256 254 251 249 246 244 242 242 241 243 245 248 250 253 254 254 251 249 247 246 246 245 244 242 240 239 238 238 238 238 239 239 239 239 238 238 238 238 239 239 239 240 240 242 243 243 243 243 243 242 242 241 240 239 238
288 287 286 286 285 284 284 284 286 287 288 288 288 288 287 286 285 282 280 277 274 270 268 266 267 268 268 267 264 262 259 257 255 254 252 249 245 242 241 241 243 246 248 250 252 254 255 254 251 249 248 248 248 247 245 243 240 239 237 237 237 237 238 238 238 238 237 237 237 238 239 239 240 241 241 242 242 242 242 242 242 241 241 240 239 238
291 289 289 289 289 288 288 288 288 289 289 290 290 289 289 289 287 285 283 281 279 276 274 272 271 271 271 270 268 264 261 258 255 254 253 251 249 246 244 243 244 246 248 249 251 253 255 255 253 251 250 250 250 249 247 245 243 240 238 237 236 236 236 237 237 237 236 235 235 235 237 239 240 241 241 241 241 241 241 241 241 241 241 240 239 237
294 291 289 288 289 290 291 292 291 290 290 291 291 290 289 288 288 287 285 284 282 281 280 277 275 274 274 273 271 268 264 260 257 255 254 254 253 251 249 247 246 247 248 248 249 251 254 255 255 254 253 252 251 250 248 246 244 242 240 238 237 236 235 235 236 236 236 235 233 232 233 236 238 240 241 241 240 240 239 239 240 240 240 240 238 237
295 291 287 285 284 284 285 284 283 284 285 285 284 284 284 284 285 285 285 284 283 283 282 280 279 278 277 277 275 272 268 264 260 257 256 256 256 255 253 251 250 250 250 249 249 249 252 254 256 256 256 256 254 253 250 247 245 243 241 239 237 236 235 234 234 235 235 234 233 231 230 232 235 238 240 240 240 239 238 238 238 239 239 239 238 237
295 291 287 283 281 279 278 277 276 277 277 276 276 276 277 278 279 280 281 282 284 284 283 282 281 280 279 278 277 275 272 268 264 261 259 259 259 258 257 255 254 253 253 251 250 250 251 253 255 256 256 256 256 255 252 248 245 243 241 239 238 237 235 234 234 234 234 234 233 231 230 230 232 235 238 239 240 239 237 236 237 237 238 238 237 236
294 290 286 284 282 280 278 277 276 275 274 273 273 272 272 272 273 274 275 279 283 285 285 283 282 280 279 278 277 276 275 272 269 266 263 262 261 260 259 258 256 255 255 254 252 251 251 252 252 251 248 247 248 249 250 249 246 244 241 240 239 237 236 235 234 233 233 233 233 232 231 230 231 233 236 238 239 238 237 235 235 236 237 237 236 235
295 290 287 285 284 284 284 282 280 277 274 273 272 271 271 270 270 271 272 275 279 282 282 283 283 282 281 279 278 278 277 276 274 272 269 267 264 263 262 261 259 258 256 256 255 253 252 251 249 245 240 239 239 241 245 247 247 246 244 242 240 239 238 236 235 234 234 233 233 233 232 231 231 232 234 236 238 237 236 234 233 234 235 235 235 235
297 292 289 287 287 288 290 290 288 284 280 275 272 270 269 268 269 270 272 274 277 278 279 281 282 283 284 284 283 282 280 279 278 277 273 270 268 266 265 263 261 259 257 256 256 254 252 250 247 242 237 235 235 237 240 244 247 247 246 244 242 240 239 238 236 235 235 234 234 234 233 233 232 232 233 235 236 236 235 233 232 233 233 234 234 234
299 296 294 292 292 293 294 296 296 294 290 284 277 272 269 267 267 267 268 270 272 274 276 277 278 279 281 283 284 284 283 283 282 279 276 272 271 270 269 266 262 259 256 255 254 253 252 250 245 240 236 233 233 234 236 239 243 245 246 244 243 241 240 239 238 237 236 235 235 234 234 233 233 232 233 234 234 235 234 233 232 232 232 233 233 233
301 299 298 297 297 296 297 298 300 299 297 292 286 281 276 272 270 269 268 268 269 269 271 272 273 275 276 278 278 279 280 282 280 275 270 266 266 267 268 263 259 256 254 252 250 250 250 248 245 240 235 233 233 234 235 236 238 241 243 242 241 240 240 240 239 238 237 236 236 235 234 234 233 233 232 233 233 233 233 232 232 231 232 232 232 231
302 302 301 300 299 297 296 295 295 294 292 290 288 285 283 281 279 278 277 275 273 272 271 270 271 271 271 272 270 268 267 267 265 259 253 249 248 249 250 247 247 249 250 248 246 246 246 247 245 242 238 236 236 237 237 237 237 239 241 240 239 239 240 240 240 240 238 237 236 235 234 234 233 233 232 232 232 232 232 232 231 231 231 231 231 230
303 303 304 304 302 299 296 292 290 287 286 285 284 283 282 282 282 282 283 282 281 278 276 274 272 270 269 267 264 259 255 254 252 248 242 241 242 245 245 240 235 236 240 242 243 244 244 245 245 244 241 239 239 239 239 239 239 240 241 241 241 241 242 243 243 242 240 238 236 235 234 233 233 232 232 232 232 232 231 231 230 230 230 230 230 229
302 303 305 307 305 301 294 288 285 285 286 287 286 285 283 281 280 279 279 279 280 280 281 280 277 273 269 266 262 257 253 251 249 247 244 245 247 250 252 248 237 229 229 234 238 240 242 244 245 245 244 243 242 241 241 241 242 242 243 243 243 244 245 245 245 244 242 239 237 235 233 232 231 231 231 231 231 231 231 230 230 229 230 229 229 228
300 300 301 304 305 301 293 287 284 286 288 290 290 289 286 283 280 278 277 276 277 280 284 284 281 276 272 267 263 259 255 252 250 249 248 250 253 255 257 254 246 234 228 229 231 234 236 240 242 244 246 246 246 245 243 243 243 243 244 244 244 245 245 245 245 244 242 240 237 235 233 232 231 230 231 231 231 231 231 230 229 229 229 228 228 227
298 296 295 297 298 298 295 292 291 292 294 296 296 294 291 287 283 279 276 275 276 279 284 285 283 276 269 266 264 262 259 256 252 249 248 251 255 258 261 259 255 248 242 238 235 233 233 235 237 239 242 244 244 243 243 243 243 243 243 243 243 243 243 243 243 242 240 239 237 235 233 232 231 230 230 230 230 230 230 229 229 228 228 228 227 226
297 293 291 291 293 294 296 296 297 298 299 299 299 298 295 291 285 280 277 275 275 276 278 280 281 278 272 269 267 266 266 263 258 253 249 250 252 257 261 262 261 258 255 253 250 246 242 239 237 236 235 236 237 237 237 238 239 241 241 240 240 239 239 239 239 238 238 237 236 234 232 231 230 230 229 229 229 228 228 227 227 227 227 227 226 225
298 297 295 294 294 296 298 299 300 300 300 300 300 300 298 293 287 281 277 275 275 275 276 278 279 280 281 281 280 278 276 273 267 261 255 251 251 254 257 260 262 261 260 260 259 257 253 249 244 239 236 233 230 228 227 227 231 236 240 239 237 235 235 235 234 235 235 235 234 232 231 230 229 228 228 227 227 227 226 225 225 224 224 224 223 223
301 303 301 299 298 299 301 303 303 302 301 300 299 300 299 297 292 286 280 277 276 276 277 278 280 281 282 283 283 283 282 279 275 268 262 256 253 252 254 256 258 259 259 260 259 259 257 254 250 244 239 234 229 225 220 218 219 226 234 235 234 232 231 230 229 230 232 232 231 230 229 228 227 226 225 225 225 225 224 224 224 223 223 222 221 221
299 300 298 297 296 298 301 303 304 303 301 299 297 297 299 301 302 299 293 287 283 281 281 281 282 283 283 283 284 284 283 281 279 274 269 264 259 256 254 254 255 255 256 256 256 256 255 254 251 246 240 235 231 227 223 219 218 219 221 222 225 227 228 226 225 226 228 229 229 229 227 226 224 223 223 222 223 223 223 223 223 223 222 221 221 220
288 288 288 289 292 294 297 300 301 301 300 297 295 293 294 298 302 304 302 298 293 289 287 287 287 287 287 286 285 284 283 281 279 277 274 270 266 263 259 256 255 254 253 253 253 252 252 251 249 246 240 236 233 231 228 225 223 221 218 212 213 219 222 222 222 223 224 225 226 225 224 224 223 222 221 220 220 220 221 221 221 222 221 221 220 220
283 282 283 285 288 290 293 295 296 297 297 295 293 290 288 290 293 296 297 297 295 293 291 291 292 292 292 291 290 288 285 282 279 277 274 272 269 266 263 260 258 256 254 253 252 250 249 248 247 244 240 236 234 233 233 232 229 227 224 219 214 211 212 216 218 219 219 219 219 219 218 219 219 219 219 218 217 217 218 219 219 219 219 219 218 217
283 283 283 285 286 288 290 291 292 293 292 292 290 288 285 284 285 288 290 291 292 291 291 291 292 293 294 295 295 293 290 286 281 278 275 272 270 267 265 263 261 259 257 256 254 251 249 247 245 243 241 238 236 235 236 236 234 233 231 229 225 217 208 209 211 213 214 215 215 214 212 212 212 214 215 215 214 215 216 216 216 217 217 216 215 214
286 285 285 286 287 288 289 290 290 290 289 289 289 288 286 283 282 282 284 285 285 287 288 289 291 294 296 297 298 297 294 290 286 282 278 275 271 269 267 266 264 262 260 258 256 253 250 247 245 243 241 239 237 237 238 239 238 237 236 236 235 225 210 205 206 208 210 212 213 211 210 208 207 208 209 211 212 212 213 214 215 215 215 214 213 212
290 289 288 288 288 289 291 291 290 289 288 288 289 290 289 286 282 280 279 279 280 281 283 286 290 294 298 300 300 300 299 296 292 288 283 278 274 271 269 268 267 265 262 259 257 254 252 249 246 244 242 240 239 238 238 240 242 242 241 241 240 230 210 202 202 205 208 210 210 209 207 206 204 204 205 206 208 209 211 212 213 214 214 214 213 213
296 294 292 291 291 292 294 294 292 291 290 290 291 292 292 290 286 281 277 275 276 277 280 284 289 294 298 301 303 305 305 303 300 296 290 283 276 272 271 269 268 266 263 260 257 254 253 251 248 245 243 241 239 238 238 240 242 245 245 245 243 235 218 205 202 205 209 211 211 208 205 204 203 204 204 204 205 206 208 210 211 212 213 213 213 214
301 299 296 294 292 291 291 291 292 293 294 296 296 296 296 293 289 285 280 277 276 277 280 285 290 295 299 304 309 313 314 313 310 306 301 294 286 279 275 272 270 267 263 260 257 255 253 252 250 247 244 242 240 239 238 239 242 245 246 247 247 242 229 212 205 207 212 215 214 209 205 202 202 204 205 205 205 205 206 207 209 210 211 211 212 213
304 302 299 296 293 290 288 289 291 295 298 300 301 301 299 297 293 289 285 282 280 282 285 289 294 299 305 313 320 322 322 320 317 314 314 314 310 302 293 286 279 272 267 262 259 257 255 254 252 249 247 245 242 240 238 238 239 242 244 245 246 244 237 223 213 211 215 220 220 216 209 203 202 203 205 206 206 206 206 207 208 209 210 210 210 210
306 304 302 300 298 296 295 295 296 298 299 301 302 303 302 300 297 294 291 288 288 289 292 295 300 306 314 319 321 321 321 319 315 308 303 308 309 307 305 301 295 288 278 270 264 260 258 256 253 250 248 246 244 242 239 238 238 239 240 241 242 241 238 231 222 217 219 225 229 227 221 212 206 204 204 206 207 208 208 208 208 209 210 210 210 209
308 307 305 304 303 303 302 302 301 301 302 303 304 304 304 303 300 297 294 293 293 294 296 298 302 309 315 317 316 316 317 315 309 300 290 287 289 292 296 298 297 295 289 283 278 272 267 262 256 250 246 244 244 242 240 238 237 237 237 237 238 237 236 233 228 223 224 229 235 237 235 228 219 209 204 205 207 208 209 209 209 209 210 210 211 211
Height
3003 3003 3003 3003 3003 3002 3002 3002 3003 3003 3002 3003 3004 3004 3004 3004 3003 3003 3003 3003 3004 3005 3007 3008 3008 3009 3009 3010 3010 3011 3012 3013 3013 3014 3014 3014 3014 3014 3015 3015 3015 3016 3016 3017 3017 3018 3018 3019 3019 3020 3020 3021 3021 3022 3023 3024 3025 3025 3026 3026 3027 3028 3028 3028 3029 3029 3029 3029 3030 3031 3032 3033 3033 3034 3035 3036 3037 3037 3038 3038 3039 3040 3040 3041 3042 3042
2999 2999 2999 2999 2998 2997 2996 2997 2998 2998 2997 2997 2997 2997 2998 2998 2997 2997 2998 2998 2999 2999 3001 3002 3003 3004 3004 3005 3005 3006 3007 3008 3009 3009 3010 3010 3010 3010 3010 3011 3011 3012 3012 3012 3013 3014 3014 3015 3016 3016 3017 3017 3018 3019 3020 3020 3021 3022 3022 3023 3023 3024 3025 3026 3027 3027 3026 3026 3027 3028 3029 3030 3031 3032 3032 3033 3034 3034 3035 3036 3037 3037 3038 3038 3039 3040
2994 2994 2993 2994 2993 2993 2992 2992 2992 2992 2992 2991 2991 2991 2991 2991 2991 2991 2992 2992 2993 2993 2994 2996 2997 2998 2999 2999 3000 3001 3002 3002 3003 3004 3005 3005 3005 3005 3006 3006 3006 3007 3008 3008 3009 3010 3010 3011 3012 3012 3013 3013 3014 3015 3016 3017 3017 3018 3019 3020 3020 3021 3022 3023 3023 3023 3022 3023 3024 3025 3026 3027 3028 3028 3029 3030 3031 3032 3032 3033 3034 3035 3035 3036 3037 3037
2990 2989 2988 2988 2988 2987 2987 2987 2987 2987 2987 2986 2985 2985 2985 2985 2984 2985 2985 2986 2986 2987 2988 2989 2991 2992 2993 2994 2995 2996 2996 2997 2998 2999 2999 3000 3000 3001 3001 3001 3002 3002 3003 3004 3005 3005 3006 3007 3007 3008 3009 3010 3010 3011 3012 3012 3013 3014 3015 3016 3017 3017 3018 3019 3020 3020 3020 3020 3021 3022 3023 3024 3025 3025 3026 3027 3028 3029 3030 3031 3031 3032 3033 3033 3034 3035
2986 2985 2983 2983 2983 2982 2982 2982 2982 2982 2982 2982 2981 2981 2981 2980 2979 2979 2979 2980 2980 2980 2981 2982 2983 2985 2986 2988 2989 2990 2991 2992 2992 2993 2994 2995 2995 2996 2996 2996 2997 2997 2998 2999 3000 3001 3002 3002 3003 3004 3005 3006 3006 3007 3008 3008 3009 3010 3011 3012 3013 3015 3015 3016 3016 3016 3016 3017 3018 3018 3020 3021 3022 3022 3023 3024 3025 3026 3027 3028 3029 3029 3030 3031 3032 3032
2981 2980 2979 2978 2977 2977 2977 2977 2978 2977 2977 2977 2977 2977 2977 2976 2975 2975 2975 2975 2975 2975 2975 2975 2976 2977 2979 2981 2983 2984 2985 2986 2987 2987 2988 2989 2990 2991 2991 2991 2992 2992 2993 2994 2995 2996 2997 2998 2999 3000 3001 3002 3002 3003 3004 3005 3005 3006 3007 3007 3009 3011 3012 3013 3013 3013 3013 3014 3014 3016 3017 3018 3019 3019 3020 3021 3022 3023 3024 3025 3026 3027 3027 3028 3029 3030
2975 2975 2974 2973 2972 2972 2972 2972 2972 2972 2972 2972 2971 2971 2972 2971 2971 2971 2970 2970 2970 2970 2970 2970 2970 2971 2972 2974 2976 2978 2979 2980 2981 2982 2983 2984 2985 2986 2986 2987 2987 2987 2988 2989 2990 2992 2992 2993 2994 2995 2996 2997 2998 2999 3000 3001 3002 3002 3003 3004 3005 3006 3007 3009 3010 3010 3010 3011 3011 3012 3014 3015 3016 3016 3017 3018 3019 3020 3021 3022 3023 3024 3025 3025 3026 3027
2969 2969 2969 2968 2967 2966 2966 2966 2967 2967 2967 2966 2965 2965 2965 2966 2966 2966 2966 2966 2966 2966 2965 2965 2965 2966 2967 2968 2970 2972 2973 2974 2975 2976 2977 2978 2979 2981 2981 2982 2982 2982 2982 2983 2985 2986 2987 2989 2990 2991 2992 2993 2993 2994 2995 2996 2997 2998 2999 3000 3001 3002 3003 3004 3005 3006 3007 3007 3008 3009 3010 3011 3012 3013 3014 3015 3016 3017 3019 3020 3020 3021 3022 3022 3023 3024
2964 2963 2963 2963 2962 2961 2960 2960 2961 2962 2962 2961 2960 2959 2959 2959 2959 2960 2960 2961 2961 2961 2961 2961 2960 2960 2961 2962 2964 2965 2967 2968 2969 2970 2971 2972 2974 2975 2976 2977 2977 2977 2977 2978 2979 2981 2982 2984 2985 2986 2987 2988 2989 2990 2991 2992 2993 2994 2995 2996 2997 2998 2999 3000 3001 3002 3002 3003 3004 3005 3007 3007 3008 3010 3011 3012 3014 3015 3016 3017 3017 3018 3019 3020 3021 3022
2959 2958 2957 2957 2957 2956 2955 2954 2954 2955 2956 2955 2954 2953 2954 2954 2954 2954 2954 2955 2955 2956 2957 2956 2955 2955 2955 2956 2957 2959 2960 2962 2963 2964 2966 2967 2968 2970 2971 2971 2972 2972 2972 2973 2974 2975 2977 2978 2980 2981 2982 2983 2984 2986 2987 2987 2989 2990 2991 2992 2993 2994 2995 2996 2997 2998 2999 3000 3001 3002 3003 3004 3005 3007 3008 3010 3011 3012 3013 3013 3014 3015 3016 3017 3017 3019
2953 2952 2952 2951 2950 2950 2950 2949 2948 2948 2949 2949 2948 2948 2948 2949 2949 2949 2948 2948 2949 2950 2951 2951 2950 2950 2950 2950 2951 2952 2954 2955 2957 2958 2960 2961 2963 2964 2965 2966 2967 2967 2967 2968 2968 2970 2971 2973 2974 2976 2977 2978 2980 2981 2982 2983 2984 2985 2987 2988 2989 2990 2991 2992 2993 2994 2995 2996 2997 2998 2999 3001 3002 3003 3005 3007 3008 3008 3009 3010 3010 3012 3012 3014 3015 3016
2947 2946 2945 2945 2944 2944 2943 2943 2943 2942 2943 2943 2943 2942 2942 2943 2944 2944 2942 2942 2942 2943 2944 2944 2944 2945 2945 2945 2946 2947 2948 2949 2950 2952 2954 2955 2957 2958 2960 2961 2962 2962 2962 2963 2963 2965 2966 2968 2969 2971 2972 2974 2975 2976 2977 2978 2980 2981 2982 2983 2985 2986 2987 2988 2989 2990 2991 2992 2993 2994 2996 2997 2999 3000 3002 3003 3004 3005 3005 3006 3007 3008 3009 3011 3012 3013
2943 2941 2940 2939 2938 2938 2937 2937 2936 2936 2937 2937 2937 2937 2937 2937 2938 2938 2937 2936 2936 2937 2938 2938 2938 2939 2940 2941 2941 2941 2942 2943 2944 2946 2948 2949 2951 2952 2954 2955 2957 2957 2958 2958 2959 2960 2961 2963 2964 2966 2967 2969 2970 2972 2973 2974 2975 2977 2978 2979 2980 2982 2983 2984 2985 2986 2987 2988 2990 2991 2992 2994 2995 2997 2998 2999 3000 3001 3002 3002 3004 3005 3007 3007 3009 3010
2937 2936 2935 2935 2933 2932 2932 2932 2931 2930 2930 2930 2931 2931 2931 2931 2932 2932 2932 2931 2931 2932 2933 2933 2933 2933 2934 2935 2936 2937 2937 2937 2938 2940 2942 2943 2945 2946 2948 2949 2951 2952 2953 2954 2954 2955 2957 2958 2959 2961 2962 2964 2965 2967 2968 2969 2971 2972 2974 2975 2976 2977 2979 2980 2981 2982 2983 2985 2986 2987 2989 2990 2992 2993 2994 2996 2997 2997 2998 2999 3001 3002 3003 3005 3006 3007
2932 2930 2930 2929 2928 2927 2927 2927 2926 2925 2924 2924 2924 2925 2925 2925 2926 2927 2927 2927 2926 2927 2927 2927 2927 2927 2928 2930 2931 2932 2933 2932 2932 2933 2936 2938 2940 2941 2942 2943 2945 2947 2948 2949 2950 2951 2952 2953 2954 2955 2957 2959 2960 2962 2963 2965 2966 2968 2969 2971 2972 2973 2974 2976 2977 2978 2980 2981 2982 2983 2985 2986 2988 2989 2991 2992 2993 2994 2995 2996 2998 2999 3001 3002 3003 3004
2926 2925 2924 2923 2922 2922 2922 2922 2921 2920 2919 2919 2919 2919 2919 2919 2920 2921 2922 2922 2921 2922 2922 2922 2922 2921 2922 2924 2926 2928 2929 2929 2928 2928 2930 2932 2935 2937 2938 2938 2939 2940 2942 2944 2945 2946 2948 2949 2949 2951 2952 2954 2956 2957 2959 2960 2962 2963 2965 2966 2967 2969 2970 2972 2973 2974 2975 2977 2978 2980 2981 2982 2984 2986 2987 2989 2990 2990 2992 2993 2995 2996 2997 2998 3000 3001
2922 2921 2919 2917 2916 2916 2916 2916 2916 2915 2914 2914 2913 2913 2914 2913 2913 2914 2916 2917 2917 2917 2917 2917 2917 2916 2916 2917 2920 2923 2925 2926 2925 2925 2926 2927 2929 2931 2933 2933 2933 2934 2936 2938 2940 2941 2943 2944 2945 2946 2947 2949 2951 2952 2954 2955 2957 2958 2960 2962 2963 2964 2966 2967 2968 2970 2972 2973 2974 2976 2977 2979 2981 2982 2984 2985 2986 2987 2988 2990 2991 2993 2994 2995 2997 2998
2917 2916 2915 2913 2912 2911 2910 2910 2910 2910 2909 2909 2909 2909 2908 2908 2908 2908 2909 2910 2911 2912 2912 2912 2912 2912 2912 2912 2914 2917 2920 2922 2923 2923 2923 2924 2925 2927 2928 2928 2927 2927 2929 2932 2934 2936 2937 2939 2940 2941 2943 2944 2946 2947 2949 2951 2952 2954 2955 2957 2958 2960 2961 2963 2964 2966 2967 2969 2970 2972 2974 2975 2977 2978 2980 2981 2982 2983 2985 2987 2988 2989 2991 2992 2993 2995
2912 2912 2911 2910 2908 2906 2905 2905 2905 2905 2904 2904 2905 2904 2904 2904 2904 2904 2904 2904 2905 2906 2907 2907 2907 2907 2907 2908 2909 2911 2915 2918 2918 2918 2919 2919 2919 2921 2925 2926 2925 2923 2923 2925 2927 2930 2932 2933 2935 2936 2938 2939 2941 2943 2944 2946 2947 2949 2951 2952 2954 2955 2957 2958 2960 2962 2963 2965 2967 2968 2970 2972 2973 2975 2976 2977 2978 2980 2982 2983 2984 2986 2987 2989 2990 2992
2908 2907 2907 2906 2904 2902 2901 2901 2901 2901 2900 2900 2900 2900 2900 2899 2899 2899 2900 2900 2900 2900 2900 2902 2902 2902 2903 2904 2904 2907 2911 2914 2914 2914 2915 2915 2915 2916 2918 2921 2922 2922 2921 2921 2922 2923 2926 2927 2930 2931 2933 2935 2936 2938 2940 2941 2943 2944 2946 2947 2949 2951 2952 2954 2956 2957 2959 2961 2962 2964 2966 2967 2969 2971 2972 2973 2974 2976 2978 2979 2981 2982 2984 2986 2987 2988
2903 2902 2902 2902 2901 2899 2897 2896 2897 2897 2898 2897 2897 2896 2895 2895 2894 2895 2895 2896 2897 2896 2896 2896 2897 2897 2898 2900 2901 2903 2907 2910 2910 2909 2909 2910 2911 2912 2913 2914 2914 2915 2916 2917 2917 2918 2920 2922 2924 2927 2928 2930 2931 2933 2935 2936 2938 2940 2941 2943 2945 2946 2948 2950 2951 2953 2955 2957 2958 2960 2962 2964 2965 2967 2968 2969 2971 2972 2974 2976 2977 2979 2980 2982 2984 2985
2900 2898 2897 2898 2898 2897 2894 2893 2893 2894 2895 2894 2893 2892 2891 2891 2891 2891 2890 2891 2892 2892 2892 2892 2891 2892 2893 2896 2898 2900 2903 2906 2906 2905 2903 2904 2906 2908 2909 2910 2909 2909 2909 2910 2912 2914 2915 2916 2918 2921 2924 2926 2927 2928 2930 2931 2933 2935 2937 2938 2940 2942 2943 2945 2947 2949 2951 2953 2954 2956 2958 2960 2961 2963 2964 2966 2967 2969 2971 2972 2974 2975 2977 2979 2980 2982
2897 2895 2894 2894 2894 2893 2892 2892 2891 2891 2891 2891 2890 2889 2887 2887 2887 2887 2886 2887 2887 2887 2887 2887 2887 2887 2889 2892 2894 2896 2898 2901 2902 2901 2900 2899 2900 2901 2904 2905 2905 2904 2904 2905 2907 2909 2910 2911 2913 2916 2920 2922 2922 2924 2925 2927 2928 2930 2932 2934 2935 2937 2939 2941 2942 2944 2946 2948 2951 2953 2954 2956 2957 2959 2960 2962 2964 2965 2967 2969 2970 2972 2973 2975 2977 2979
2894 2893 2892 2891 2891 2890 2890 2889 2888 2888 2887 2887 2887 2886 2885 2884 2884 2884 2883 2883 2883 2883 2883 2882 2883 2883 2885 2887 2889 2891 2893 2897 2897 2897 2896 2894 2893 2894 2897 2900 2901 2900 2899 2901 2903 2905 2905 2906 2908 2911 2915 2917 2918 2919 2921 2922 2923 2925 2927 2929 2931 2932 2934 2936 2938 2940 2942 2944 2947 2949 2951 2952 2954 2955 2957 2958 2960 2962 2964 2965 2967 2969 2970 2972 2974 2976
2891 2890 2889 2889 2889 2888 2888 2887 2887 2886 2886 2885 2884 2883 2882 2882 2881 2881 2880 2880 2880 2880 2879 2879 2879 2879 2880 2882 2884 2886 2889 2892 2893 2893 2892 2889 2888 2889 2892 2896 2896 2895 2895 2897 2899 2901 2902 2901 2903 2906 2910 2912 2913 2915 2916 2917 2919 2920 2922 2924 2926 2927 2929 2932 2933 2935 2937 2939 2942 2945 2947 2949 2951 2952 2953 2955 2957 2958 2960 2962 2964 2965 2967 2969 2970 2972
2888 2887 2886 2885 2886 2886 2886 2886 2885 2884 2884 2884 2883 2882 2882 2881 2880 2878 2877 2877 2877 2877 2877 2876 2875 2875 2876 2878 2880 2882 2884 2887 2889 2889 2888 2886 2885 2885 2887 2891 2892 2891 2890 2892 2895 2897 2897 2897 2899 2902 2905 2907 2909 2910 2912 2913 2914 2916 2917 2919 2921 2922 2924 2927 2929 2931 2933 2935 2937 2940 2942 2945 2947 2948 2949 2951 2953 2955 2957 2959 2961 2962 2964 2965 2967 2969
2885 2884 2883 2882 2882 2882 2882 2881 2880 2880 2880 2880 2880 2880 2880 2879 2878 2877 2876 2875 2874 2874 2874 2873 2872 2872 2872 2874 2876 2877 2879 2882 2884 2885 2885 2883 2882 2881 2882 2886 2887 2888 2887 2888 2890 2892 2893 2894 2896 2898 2901 2903 2905 2907 2907 2908 2909 2911 2912 2914 2916 2917 2919 2922 2924 2926 2928 2930 2932 2935 2937 2940 2943 2945 2946 2947 2949 2951 2953 2956 2957 2959 2961 2962 2964 2965
2883 2882 2881 2880 2879 2879 2879 2878 2877 2877 2877 2877 2877 2876 2876 2875 2875 2874 2873 2873 2873 2873 2871 2870 2869 2869 2869 2870 2872 2873 2875 2877 2880 2881 2882 2880 2879 2878 2879 2882 2883 2884 2884 2885 2886 2887 2889 2891 2892 2895 2897 2900 2902 2903 2903 2904 2905 2906 2908 2910 2911 2913 2915 2917 2919 2921 2923 2926 2928 2930 2932 2935 2938 2940 2942 2944 2945 2947 2950 2952 2954 2956 2957 2959 2960 2962
2881 2880 2879 2878 2877 2877 2876 2876 2875 2875 2875 2874 2874 2874 2873 2873 2872 2871 2870 2871 2872 2872 2871 2869 2868 2867 2867 2867 2868 2869 2871 2874 2876 2877 2878 2877 2876 2875 2876 2878 2880 2881 2881 2881 2881 2883 2886 2887 2889 2891 2893 2895 2896 2897 2898 2900 2901 2902 2904 2906 2908 2909 2911 2913 2915 2917 2919 2921 2923 2926 2928 2931 2933 2936 2938 2940 2942 2944 2946 2948 2951 2952 2954 2955 2957 2958
2879 2878 2877 2876 2876 2875 2874 2873 2872 2872 2872 2872 2872 2872 2871 2871 2870 2868 2868 2868 2868 2869 2868 2868 2867 2866 2865 2865 2865 2866 2868 2870 2873 2874 2874 2874 2872 2872 2873 2875 2877 2877 2877 2877 2878 2879 2881 2882 2884 2887 2889 2891 2892 2893 2895 2896 2897 2899 2901 2903 2905 2906 2908 2909 2911 2913 2915 2917 2919 2922 2924 2926 2929 2931 2934 2936 2938 2940 2942 2945 2947 2949 2950 2952 2953 2955
2876 2876 2875 2874 2873 2872 2872 2871 2870 2869 2869 2869 2869 2868 2868 2868 2867 2867 2867 2867 2866 2865 2864 2864 2864 2864 2863 2863 2863 2863 2864 2867 2870 2872 2872 2871 2869 2868 2870 2872 2872 2872 2873 2874 2875 2875 2876 2877 2880 2883 2885 2887 2888 2890 2891 2893 2894 2896 2898 2900 2902 2903 2904 2906 2908 2909 2911 2913 2915 2917 2920 2922 2925 2927 2929 2932 2934 2937 2939 2941 2943 2945 2946 2948 2950 2952
2873 2873 2872 2871 2871 2870 2869 2868 2868 2867 2867 2867 2866 2866 2866 2865 2865 2865 2865 2865 2864 2864 2863 2862 2861 2861 2861 2862 2862 2862 2863 2865 2867 2869 2870 2870 2869 2869 2870 2870 2869 2869 2870 2871 2871 2872 2872 2873 2875 2878 2881 2882 2883 2885 2887 2889 2891 2893 2895 2897 2898 2900 2901 2902 2904 2906 2907 2910 2912 2914 2916 2918 2921 2923 2926 2928 2930 2932 2935 2937 2939 2941 2942 2944 2946 2948
2871 2871 2870 2869 2868 2867 2867 2867 2866 2866 2866 2865 2864 2864 2863 2863 2863 2862 2862 2862 2862 2861 2861 2860 2859 2859 2858 2859 2859 2860 2862 2863 2865 2867 2867 2867 2867 2867 2867 2867 2867 2867 2867 2867 2867 2868 2869 2869 2871 2873 2876 2878 2879 2881 2883 2885 2887 2890 2892 2893 2895 2897 2898 2899 2901 2902 2904 2906 2908 2910 2912 2914 2917 2919 2922 2924 2927 2929 2931 2933 2935 2937 2939 2941 2943 2945
2869 2869 2868 2867 2866 2865 2865 2864 2864 2863 2863 2862 2862 2862 2861 2861 2861 2860 2860 2859 2859 2858 2857 2857 2856 2856 2856 2855 2856 2857 2857 2859 2860 2861 2861 2861 2861 2860 2861 2862 2863 2863 2863 2863 2864 2865 2866 2866 2868 2870 2872 2874 2875 2877 2880 2882 2884 2886 2888 2890 2892 2893 2894 2896 2897 2898 2900 2902 2904 2906 2908 2911 2913 2915 2918 2920 2922 2925 2927 2929 2932 2934 2936 2937 2940 2942
2867 2867 2866 2865 2864 2864 2863 2862 2862 2861 2861 2860 2860 2859 2859 2859 2858 2858 2857 2857 2856 2856 2855 2854 2853 2852 2852 2852 2852 2853 2854 2855 2857 2857 2857 2857 2856 2856 2856 2857 2858 2859 2860 2860 2861 2862 2863 2864 2865 2867 2868 2870 2872 2874 2877 2879 2881 2882 2884 2886 2888 2889 2891 2892 2894 2895 2897 2898 2901 2902 2904 2907 2909 2912 2914 2917 2919 2921 2924 2926 2928 2930 2932 2934 2937 2939
2865 2865 2864 2863 2862 2862 2860 2859 2859 2859 2858 2858 2858 2857 2857 2856 2856 2855 2854 2854 2853 2853 2853 2853 2852 2851 2851 2850 2850 2851 2851 2853 2855 2856 2855 2854 2853 2852 2852 2853 2854 2856 2857 2857 2858 2859 2860 2861 2863 2865 2866 2867 2869 2871 2873 2875 2877 2879 2881 2883 2884 2886 2887 2889 2890 2892 2893 2895 2897 2899 2901 2903 2906 2908 2910 2913 2915 2918 2920 2923 2925 2927 2929 2931 2934 2936
2863 2863 2862 2861 2860 2859 2858 2857 2857 2857 2856 2856 2855 2855 2854 2853 2853 2852 2852 2851 2851 2851 2851 2852 2852 2851 2851 2851 2850 2849 2849 2850 2852 2852 2852 2852 2851 2850 2849 2849 2850 2852 2854 2855 2855 2856 2858 2859 2861 2863 2864 2865 2866 2867 2869 2871 2873 2876 2877 2879 2880 2882 2883 2885 2887 2888 2890 2892 2893 2895 2898 2900 2902 2905 2907 2910 2912 2915 2918 2920 2922 2924 2926 2928 2931 2933
2862 2861 2860 2859 2858 2857 2857 2856 2856 2855 2854 2854 2853 2852 2852 2851 2850 2850 2849 2849 2849 2848 2848 2847 2847 2847 2848 2847 2847 2847 2847 2848 2849 2850 2850 2850 2850 2848 2847 2846 2847 2850 2851 2852 2853 2854 2856 2857 2859 2860 2862 2863 2864 2865 2867 2868 2870 2872 2873 2875 2876 2878 2880 2881 2883 2885 2886 2888 2890 2892 2895 2897 2899 2902 2904 2907 2910 2912 2915 2917 2919 2922 2924 2926 2928 2930
2859 2858 2858 2857 2857 2856 2855 2854 2854 2853 2852 2852 2851 2850 2849 2848 2848 2847 2847 2847 2847 2846 2845 2845 2845 2844 2844 2845 2845 2845 2846 2846 2847 2847 2847 2848 2848 2847 2846 2845 2845 2847 2848 2849 2851 2852 2853 2855 2856 2857 2859 2860 2862 2864 2865 2866 2867 2869 2871 2872 2873 2875 2876 2878 2880 2882 2883 2885 2887 2889 2892 2894 2896 2898 2901 2904 2907 2909 2911 2913 2916 2918 2920 2923 2925 2927
2857 2857 2856 2855 2854 2854 2853 2853 2852 2851 2851 2850 2849 2848 2848 2847 2846 2845 2845 2844 2844 2844 2843 2843 2843 2842 2842 2842 2843 2843 2843 2844 2844 2844 2845 2845 2845 2845 2845 2844 2844 2845 2846 2847 2848 2850 2851 2852 2853 2855 2857 2859 2860 2861 2862 2863 2864 2865 2867 2870 2871 2872 2873 2874 2877 2879 2881 2882 2884 2886 2888 2891 2893 2896 2898 2901 2903 2905 2907 2910 2912 2914 2917 2919 2921 2923
2856 2855 2854 2853 2852 2852 2852 2851 2850 2850 2849 2848 2848 2847 2846 2845 2844 2844 2843 2842 2842 2842 2842 2841 2841 2840 2840 2840 2840 2841 2841 2841 2841 2841 2842 2842 2842 2842 2842 2842 2842 2843 2844 2845 2846 2847 2848 2850 2852 2853 2855 2857 2857 2858 2859 2860 2861 2862 2863 2866 2868 2869 2870 2872 2874 2877 2878 2880 2882 2883 2886 2888 2890 2893 2895 2898 2900 2902 2904 2907 2909 2911 2913 2915 2917 2920
2853 2852 2851 2850 2850 2850 2849 2849 2849 2848 2847 2847 2846 2846 2845 2844 2843 2842 2842 2841 2841 2840 2840 2840 2839 2838 2838 2838 2838 2838 2839 2839 2839 2839 2839 2839 2839 2839 2840 2840 2840 2841 2842 2842 2843 2845 2846 2848 2849 2851 2852 2854 2855 2856 2856 2857 2858 2859 2860 2861 2864 2867 2870 2871 2872 2874 2876 2877 2879 2881 2883 2886 2888 2890 2892 2895 2897 2899 2902 2904 2906 2908 2911 2913 2915 2918
2850 2849 2848 2848 2848 2847 2847 2847 2847 2846 2846 2845 2845 2844 2843 2843 2842 2841 2840 2839 2839 2839 2838 2838 2837 2837 2836 2836 2836 2836 2837 2837 2837 2836 2836 2836 2837 2837 2837 2837 2838 2838 2839 2840 2841 2842 2844 2845 2847 2848 2849 2851 2852 2853 2853 2854 2855 2856 2857 2857 2859 2863 2868 2869 2869 2871 2872 2874 2876 2878 2881 2883 2885 2887 2890 2892 2894 2897 2899 2901 2903 2906 2908 2910 2913 2916
2847 2847 2846 2846 2845 2845 2845 2844 2844 2844 2843 2843 2843 2842 2842 2842 2840 2839 2838 2838 2837 2837 2837 2836 2836 2835 2834 2834 2834 2834 2834 2834 2834 2834 2834 2833 2834 2834 2834 2835 2835 2836 2837 2837 2838 2839 2841 2842 2844 2845 2847 2848 2849 2850 2850 2851 2852 2853 2854 2855 2856 2858 2861 2864 2866 2868 2870 2872 2874 2876 2877 2880 2882 2885 2887 2889 2892 2894 2896 2898 2901 2903 2905 2908 2911 2914
2845 2844 2844 2843 2843 2842 2842 2842 2842 2841 2841 2841 2840 2840 2840 2840 2839 2838 2837 2836 2836 2835 2835 2834 2834 2833 2832 2832 2832 2832 2831 2831 2831 2832 2831 2831 2831 2831 2832 2832 2832 2833 2834 2835 2835 2837 2838 2839 2841 2842 2844 2845 2846 2847 2847 2848 2849 2850 2851 2852 2853 2854 2856 2859 2862 2866 2868 2870 2872 2873 2875 2877 2879 2882 2885 2887 2889 2891 2893 2896 2898 2900 2903 2905 2908 2911
2843 2842 2842 2841 2841 2840 2840 2839 2839 2838 2838 2838 2838 2838 2838 2837 2837 2836 2835 2834 2834 2833 2833 2833 2832 2832 2831 2830 2830 2830 2829 2829 2829 2829 2829 2829 2829 2829 2829 2829 2830 2831 2831 2832 2832 2834 2835 2836 2837 2839 2841 2842 2843 2844 2845 2846 2847 2847 2849 2851 2852 2853 2855 2857 2860 2863 2865 2867 2869 2871 2872 2874 2876 2878 2881 2883 2886 2888 2891 2894 2896 2898 2901 2903 2906 2908
2841 2840 2840 2839 2839 2838 2838 2837 2836 2836 2835 2835 2836 2836 2836 2835 2835 2834 2833 2833 2832 2832 2831 2831 2831 2830 2830 2829 2828 2828 2827 2827 2827 2827 2827 2827 2827 2827 2827 2827 2828 2828 2829 2829 2830 2831 2833 2833 2835 2836 2838 2839 2840 2841 2842 2844 2845 2846 2847 2848 2851 2852 2854 2856 2858 2861 2862 2864 2866 2868 2870 2872 2874 2876 2877 2880 2882 2886 2888 2891 2893 2896 2898 2901 2903 2906
2839 2838 2838 2837 2837 2837 2836 2835 2834 2833 2833 2833 2833 2833 2833 2833 2832 2832 2831 2831 2830 2830 2830 2830 2829 2829 2828 2828 2827 2827 2826 2825 2825 2825 2825 2825 2825 2825 2826 2826 2826 2826 2827 2827 2828 2829 2830 2831 2832 2834 2835 2836 2837 2839 2841 2842 2843 2844 2845 2846 2848 2851 2852 2854 2857 2858 2860 2862 2863 2865 2867 2869 2871 2873 2875 2877 2880 2882 2884 2887 2890 2893 2896 2898 2901 2903
2837 2837 2836 2835 2834 2833 2833 2832 2832 2832 2832 2831 2831 2831 2831 2831 2830 2830 2829 2829 2828 2828 2828 2828 2828 2828 2827 2827 2827 2826 2825 2825 2824 2824 2824 2824 2824 2824 2825 2825 2825 2825 2825 2825 2826 2827 2827 2828 2829 2831 2832 2833 2835 2837 2838 2840 2842 2842 2843 2845 2847 2849 2851 2853 2855 2857 2858 2859 2860 2862 2864 2866 2868 2870 2872 2875 2877 2879 2881 2883 2886 2889 2892 2895 2897 2901
2836 2835 2834 2834 2833 2832 2832 2831 2831 2830 2830 2830 2829 2829 2829 2829 2829 2828 2828 2827 2827 2827 2827 2827 2827 2827 2826 2826 2825 2825 2825 2824 2824 2823 2823 2823 2823 2824 2824 2824 2824 2823 2823 2824 2824 2825 2825 2826 2827 2828 2829 2831 2833 2834 2836 2838 2839 2841 2842 2843 2845 2847 2849 2852 2853 2855 2856 2857 2857 2858 2861 2863 2865 2868 2870 2873 2875 2877 2879 2881 2883 2886 2888 2891 2894 2897
2835 2834 2833 2832 2832 2831 2830 2830 2829 2829 2828 2828 2828 2828 2827 2827 2827 2827 2827 2826 2826 2826 2826 2826 2826 2826 2825 2825 2824 2824 2824 2824 2823 2822 2822 2821 2822 2822 2823 2823 2823 2823 2823 2823 2823 2824 2824 2824 2825 2826 2827 2829 2830 2832 2833 2835 2837 2839 2840 2842 2843 2845 2847 2849 2852 2853 2854 2855 2855 2856 2857 2860 2862 2865 2867 2870 2872 2874 2877 2879 2881 2883 2886 2889 2891 2894